STARLINK AL

Last updated on June 19, 2020, 12:02 a.m. UTC

1 45764U 20038AL  20170.75001157  .00112756  11275-4  13996-3 0  9998
2 45764  52.9995 271.8077 0111366  69.5582 147.7386 15.96158203  1953

Satellite is not in orbit.